| time (UTC) | temp F | wind direction | speed MPH | gust MPH | rain 1hr in | rain 24hr in | rain mn in | humidity % | barometer mb |
| 20260505053005 | 64 | 242 | 1.0 | 7.0 | 0.00 | 0.00 | 0.00 | 60 | 1009.2 |
| 20260505051504 | 64 | 169 | 5.0 | 8.0 | 0.00 | 0.00 | 0.00 | 60 | 1009.1 |
| 20260505041558 | 64 | 266 | 5.0 | 13.0 | 0.00 | 0.00 | 0.00 | 57 | 1009.1 |
| 20260505040056 | 64 | 259 | 5.0 | 13.0 | 0.00 | 0.00 | 0.00 | 56 | 1009.1 |
| 20260505034555 | 64 | 158 | 4.0 | 13.0 | 0.00 | 0.00 | 0.00 | 56 | 1009.0 |
| 20260505033112 | 64 | 273 | 4.0 | 13.0 | 0.00 | 0.00 | 0.00 | 55 | 1009.0 |
| 20260505031555 | 64 | 323 | 6.0 | 12.0 | 0.00 | 0.00 | 0.00 | 55 | 1009.0 |
| 20260505030053 | 64 | 219 | 4.0 | 9.0 | 0.00 | 0.00 | 0.00 | 55 | 1008.8 |
| 20260505024557 | 65 | 276 | 5.0 | 10.0 | 0.00 | 0.00 | 0.00 | 54 | 1009.1 |
| 20260505023104 | 64 | 286 | 6.0 | 11.0 | 0.00 | 0.00 | 0.00 | 55 | 1009.1 |
| 20260505021552 | 63 | 300 | 4.0 | 9.0 | 0.00 | 0.00 | 0.00 | 55 | 1009.0 |
| 20260505020053 | 63 | 243 | 3.0 | 8.0 | 0.00 | 0.00 | 0.00 | 55 | 1009.0 |
| 20260505014551 | 63 | 209 | 0.0 | 4.0 | 0.00 | 0.00 | 0.00 | 55 | 1008.9 |
| 20260505013051 | 64 | 262 | 0.0 | 4.0 | 0.00 | 0.00 | 0.00 | 55 | 1009.1 |
| 20260505011558 | 64 | 264 | 1.0 | 8.0 | 0.00 | 0.00 | 0.00 | 54 | 1009.1 |
| 20260505010049 | 64 | 244 | 0.0 | 3.0 | 0.00 | 0.00 | 0.00 | 54 | 1008.7 |
| 20260505004551 | 64 | 278 | 0.0 | 6.0 | 0.00 | 0.00 | 0.00 | 53 | 1008.6 |
| 20260505003048 | 65 | 287 | 0.0 | 6.0 | 0.00 | 0.00 | 0.00 | 53 | 1008.5 |
| 20260505001548 | 66 | 291 | 0.0 | 4.0 | 0.00 | 0.00 | 0.00 | 52 | 1008.5 |
| 20260505000048 | 67 | 163 | 0.0 | 4.0 | 0.00 | 0.00 | 0.00 | 50 | 1008.4 |
| 20260504234611 | 69 | 222 | 0.0 | 5.0 | 0.00 | 0.00 | 0.00 | 47 | 1008.3 |
| 20260504233050 | 70 | 281 | 3.0 | 8.0 | 0.00 | 0.00 | 0.00 | 45 | 1008.2 |
| 20260504231553 | 71 | 269 | 1.0 | 7.0 | 0.00 | 0.00 | 0.00 | 44 | 1008.2 |
| 20260504230043 | 71 | 264 | 2.0 | 6.0 | 0.00 | 0.00 | 0.00 | 44 | 1008.4 |
| 20260504224542 | 72 | 262 | 3.0 | 10.0 | 0.00 | 0.00 | 0.00 | 42 | 1008.4 |
| 20260504223041 | 72 | 260 | 3.0 | 12.0 | 0.00 | 0.00 | 0.00 | 44 | 1008.5 |
| 20260504221542 | 72 | 279 | 3.0 | 11.0 | 0.00 | 0.00 | 0.00 | 42 | 1008.5 |
| 20260504220039 | 73 | 209 | 1.0 | 11.0 | 0.00 | 0.00 | 0.00 | 43 | 1008.5 |
| 20260504214541 | 72 | 237 | 4.0 | 15.0 | 0.00 | 0.00 | 0.00 | 41 | 1008.7 |
| 20260504213038 | 72 | 250 | 6.0 | 13.0 | 0.00 | 0.00 | 0.00 | 41 | 1008.6 |
| 20260504211539 | 73 | 283 | 5.0 | 14.0 | 0.00 | 0.00 | 0.00 | 41 | 1008.5 |
| 20260504210035 | 73 | 273 | 4.0 | 10.0 | 0.00 | 0.00 | 0.00 | 41 | 1008.5 |
| 20260504204612 | 72 | 230 | 3.0 | 12.0 | 0.00 | 0.00 | 0.00 | 42 | 1008.6 |
| 20260504203034 | 72 | 272 | 2.0 | 10.0 | 0.00 | 0.00 | 0.00 | 41 | 1008.7 |
| 20260504201528 | 72 | 250 | 2.0 | 15.0 | 0.00 | 0.00 | 0.00 | 42 | 1008.9 |
| 20260504200033 | 71 | 304 | 5.0 | 18.0 | 0.00 | 0.00 | 0.00 | 43 | 1009.2 |
| 20260504194524 | 71 | 283 | 7.0 | 16.0 | 0.00 | 0.00 | 0.00 | 42 | 1009.4 |
| 20260504193024 | 70 | 266 | 5.0 | 16.0 | 0.00 | 0.00 | 0.00 | 41 | 1009.6 |
| 20260504191519 | 71 | 279 | 4.0 | 14.0 | 0.00 | 0.00 | 0.00 | 44 | 1009.9 |
| 20260504190016 | 70 | 293 | 6.0 | 15.0 | 0.00 | 0.00 | 0.00 | 43 | 1010.1 |
| 20260504184513 | 71 | 205 | 5.0 | 16.0 | 0.00 | 0.00 | 0.00 | 42 | 1010.3 |
| 20260504183011 | 70 | 266 | 5.0 | 13.0 | 0.00 | 0.00 | 0.00 | 43 | 1010.6 |
| 20260504181510 | 69 | 243 | 6.0 | 13.0 | 0.00 | 0.00 | 0.00 | 45 | 1010.7 |
| 20260504180006 | 68 | 270 | 5.0 | 17.0 | 0.00 | 0.00 | 0.00 | 41 | 1010.9 |
| 20260504174503 | 68 | 280 | 5.0 | 11.0 | 0.00 | 0.00 | 0.00 | 44 | 1011.0 |
| 20260504173002 | 67 | 262 | 7.0 | 13.0 | 0.00 | 0.00 | 0.00 | 44 | 1011.1 |
| 20260504171559 | 66 | 249 | 4.0 | 16.0 | 0.00 | 0.00 | 0.00 | 43 | 1011.3 |
| 20260504081545 | 51 | 291 | 3.0 | 11.0 | 0.00 | 0.00 | 0.00 | 48 | 1014.4 |